Location: Killam
(52.7910°N, 111.8608°W)
Time: 07:34:45
(UTC+00:00)

CUBEBUG 2 - Pass Details

Date: 11 March 2026
Orbit: 548 x 627 km, 97.9° (Epoch: 14 April)

Event Time Altitude Azimuth Distance (km) Brightness Sun altitude
Rises 09:28:21 0° 19° (NNE) 2,872 ? -35.8°
Reaches altitude 10° 09:30:37 10° 26° (NNE) 1,975 ? -35.6°
Enters shadow 09:31:57 19° 34° (NE) 1,482 ? -35.5°
